Las Cruces, NM

6:58 AM MST on December 07, 2016 (GMT -0700)
Las Cruces International

Weather History for KLRU - October, 2012

Change the Weather History Date:

Monday, October 29, 2012

  Actual Average Record
Temperature  
Mean Temperature 57 °F -  
Max Temperature 77 °F 67 °F 84 °F (2016)
Min Temperature 37 °F 45 °F 35 °F (2011)
Degree Days  
Heating Degree Days 8    
Growing Degree Days 7 (Base 50)    
Moisture  
Dew Point 23 °F    
Average Humidity 30    
Maximum Humidity 56    
Minimum Humidity 10    
Precipitation  
Precipitation 0.00 in - - ()
Sea Level Pressure  
Sea Level Pressure 30.19 in    
Wind  
Wind Speed 3 mph (West)    
Max Wind Speed 13 mph    
Max Gust Speed -    
Visibility 10 miles    
Events      
Averages and records for this station are not official NWS values.
T = Trace of Precipitation, MM = Missing Value Source: NWS Daily Summary

Daily Weather History Graph

Daily Weather History Graph

Search for Another Location

Airport or City:

Trip Planner

Search our weather history database for the weather conditions in past years. The results will help you decide how hot, cold, wet, or windy it might be!

Date:

Astronomy

Oct. 29, 2012 Rise Set
Actual Time 7:22 AM MDT 6:19 PM MDT
Civil Twilight 6:57 AM MDT 6:44 PM MDT
Nautical Twilight 6:28 AM MDT 7:13 PM MDT
Astronomical Twilight 5:59 AM MDT 7:42 PM MDT
Moon 6:16 PM MDT (10/29) 7:14 AM MDT (10/29)
Length of Visible Light 11h 47m
Length of Day
10h 56m
Full, 100% of the Moon is Illuminated
Oct 29
Full
Oct 29
Full
Nov 6
Last Quarter
Nov 13
New
Nov 20
First Quarter

Hourly Weather History & Observations

Time (MDT) Temp. Windchill Dew Point Humidity Pressure Visibility Wind Dir Wind Speed Gust Speed Precip Events Conditions
12:15 AM 47.3 °F - 26.2 °F 44% 30.18 in 10.0 mi West 4.6 mph - N/A   Clear
12:35 AM 48.6 °F - 27.1 °F 43% 30.18 in 10.0 mi West 5.8 mph - N/A   Clear
12:55 AM 44.4 °F 42.9 °F 25.3 °F 47% 30.19 in 10.0 mi WNW 3.5 mph - N/A   Clear
1:15 AM 46.9 °F - 27.3 °F 46% 30.19 in 10.0 mi Calm Calm - N/A   Clear
1:35 AM 48.0 °F - 26.8 °F 44% 30.19 in 10.0 mi Calm Calm - N/A   Clear
1:55 AM 47.5 °F - 27.1 °F 45% 30.19 in 10.0 mi Calm Calm - N/A   Clear
2:15 AM 45.3 °F - 26.2 °F 47% 30.19 in 10.0 mi Calm Calm - N/A   Clear
2:35 AM 46.4 °F 44.3 °F 26.2 °F 45% 30.19 in 10.0 mi NW 4.6 mph - N/A   Clear
2:55 AM 45.0 °F 43.5 °F 26.4 °F 48% 30.19 in 10.0 mi North 3.5 mph - N/A   Clear
3:15 AM 45.9 °F - 26.4 °F 47% 30.18 in 10.0 mi Calm Calm - N/A   Clear
3:35 AM 45.5 °F 44.2 °F 26.4 °F 47% 30.18 in 10.0 mi North 3.5 mph - N/A   Clear
3:55 AM 43.7 °F 41.1 °F 25.3 °F 48% 30.18 in 10.0 mi North 4.6 mph - N/A   Clear
4:15 AM 44.6 °F - 25.2 °F 46% 30.18 in 10.0 mi Calm Calm - N/A   Clear
4:35 AM 42.6 °F - 24.6 °F 49% 30.19 in 10.0 mi Calm Calm - N/A   Clear
4:55 AM 40.3 °F - 23.0 °F 50% 30.19 in 10.0 mi Calm Calm - N/A   Clear
5:15 AM 40.8 °F - 23.5 °F 50% 30.19 in 10.0 mi Calm Calm - N/A   Clear
5:55 AM 40.1 °F - 23.2 °F 51% 30.20 in 10.0 mi Calm Calm - N/A   Clear
6:15 AM 38.3 °F - 21.7 °F 51% 30.20 in 10.0 mi Calm Calm - N/A   Clear
6:35 AM 38.5 °F - 23.2 °F 54% 30.20 in 10.0 mi Calm Calm - N/A   Clear
6:55 AM 39.0 °F - 23.2 °F 53% 30.20 in 10.0 mi Calm Calm - N/A   Clear
7:15 AM 37.4 °F - 22.8 °F 56% 30.21 in 10.0 mi Calm Calm - N/A   Clear
7:35 AM 38.1 °F 35.7 °F 23.5 °F 56% 30.22 in 10.0 mi NNW 3.5 mph - N/A   Clear
7:55 AM 41.5 °F 39.6 °F 25.2 °F 52% 30.23 in 10.0 mi NNW 3.5 mph - N/A   Clear
8:15 AM 47.1 °F - 26.8 °F 45% 30.24 in 10.0 mi NNW 4.6 mph - N/A   Clear
8:35 AM 52.3 °F - 28.0 °F 39% 30.25 in 10.0 mi Calm Calm - N/A   Clear
8:55 AM 56.5 °F - 28.8 °F 35% 30.25 in 10.0 mi Calm Calm - N/A   Clear
9:15 AM 58.6 °F - 29.1 °F 33% 30.25 in 10.0 mi Calm Calm - N/A   Clear
9:35 AM 60.4 °F - 29.5 °F 31% 30.26 in 10.0 mi Calm Calm - N/A   Clear
9:55 AM 61.5 °F - 29.1 °F 29% 30.26 in 10.0 mi ESE 3.5 mph - N/A   Clear
10:15 AM 61.2 °F - 28.2 °F 29% 30.27 in 10.0 mi East 4.6 mph - N/A   Clear
10:35 AM 62.1 °F - 28.4 °F 28% 30.27 in 10.0 mi Calm Calm - N/A   Clear
10:55 AM 62.8 °F - 28.4 °F 27% 30.27 in 10.0 mi Calm Calm - N/A   Clear
11:15 AM 65.1 °F - 28.9 °F 26% 30.26 in 10.0 mi Calm Calm - N/A   Clear
11:35 AM 66.0 °F - 28.9 °F 25% 30.25 in 10.0 mi Calm Calm - N/A   Clear
11:55 AM 67.3 °F - 29.1 °F 24% 30.25 in 10.0 mi ESE 3.5 mph - N/A   Clear
12:55 PM 71.4 °F - 27.7 °F 20% 30.22 in 10.0 mi Calm Calm - N/A   Clear
1:15 PM 72.3 °F - 26.2 °F 18% 30.21 in 10.0 mi Calm Calm - N/A   Clear
1:35 PM 73.2 °F - 25.2 °F 17% 30.20 in 10.0 mi Calm Calm - N/A   Clear
1:55 PM 75.0 °F - 23.7 °F 15% 30.19 in 10.0 mi Calm Calm - N/A   Clear
2:15 PM 75.4 °F - 21.9 °F 14% 30.18 in 10.0 mi Calm Calm - N/A   Clear
2:35 PM 75.4 °F - 22.5 °F 14% 30.17 in 10.0 mi SSW 5.8 mph - N/A   Clear
2:55 PM 76.5 °F - 21.7 °F 13% 30.16 in 10.0 mi SW 3.5 mph - N/A   Clear
3:15 PM 77.4 °F - 20.8 °F 12% 30.16 in 10.0 mi WSW 6.9 mph - N/A   Clear
3:35 PM 77.0 °F - 19.4 °F 12% 30.15 in 10.0 mi SSW 9.2 mph - N/A   Clear
4:15 PM 77.5 °F - 16.7 °F 10% 30.14 in 10.0 mi West 9.2 mph - N/A   Clear
4:35 PM 77.5 °F - 17.1 °F 10% 30.14 in 10.0 mi Calm Calm - N/A   Clear
4:55 PM 77.7 °F - 16.5 °F 10% 30.13 in 10.0 mi SW 4.6 mph - N/A   Clear
5:15 PM 77.0 °F - 16.5 °F 10% 30.13 in 10.0 mi WSW 3.5 mph - N/A   Clear
5:35 PM 76.6 °F - 16.7 °F 10% 30.12 in 10.0 mi Calm Calm - N/A   Clear
5:55 PM 75.9 °F - 17.1 °F 11% 30.13 in 10.0 mi Calm Calm - N/A   Clear
6:15 PM 72.9 °F - 17.6 °F 12% 30.13 in 10.0 mi SSW 4.6 mph - N/A   Clear
6:35 PM 70.2 °F - 17.1 °F 13% 30.13 in 10.0 mi South 3.5 mph - N/A   Clear
6:55 PM 64.8 °F - 15.6 °F 15% 30.13 in 10.0 mi Calm Calm - N/A   Clear
9:35 PM 59.7 °F - 12.9 °F 16% 30.15 in 10.0 mi West 11.5 mph - N/A   Clear
9:55 PM 60.6 °F - 12.9 °F 15% 30.15 in 10.0 mi West 9.2 mph - N/A   Clear
10:15 PM 59.0 °F - 12.6 °F 16% 30.15 in 10.0 mi West 10.4 mph - N/A   Clear
10:35 PM 59.5 °F - 12.7 °F 16% 30.15 in 10.0 mi West 12.7 mph - N/A   Clear
10:55 PM 58.3 °F - 12.6 °F 17% 30.15 in 10.0 mi West 12.7 mph - N/A   Clear
11:15 PM 57.6 °F - 12.7 °F 17% 30.14 in 10.0 mi West 11.5 mph - N/A   Clear
11:35 PM 57.0 °F - 12.9 °F 18% 30.14 in 10.0 mi West 11.5 mph - N/A   Clear
11:55 PM 54.1 °F - 12.9 °F 19% 30.15 in 10.0 mi NNW 8.1 mph - N/A   Clear